Location: Colossi of Memnon
(25.7167°N, 32.6167°E)
Time: 11:59:14
(UTC+00:00)

Nauka - Pass Details

Date: 07 October 2021
Orbit: 417 x 423 km, 51.6° (Epoch: 17 October)

Event Time Altitude Azimuth Distance (km) Brightness Sun altitude
Rises 16:54:08 0° 318° (NW) 2,355 ? -19.8°
Reaches altitude 10° 16:56:14 10° 319° (NW) 1,491 ? -20.3°
Enters shadow 16:59:16 72° 320° (NW) 441 ? -21.0°
